Regional Weather Roundup
Issued by NWS Midland/Odessa, TX

Skip options and go directly to product.
Home | Oldest Version | Next Version | Current Version | All | Text Only | Save Text | Print | Product List | Glossary On

Skip product version selection by date and time.   
289
ASUS44 KMAF 250710
RWRMAF
MIDLAND AREA WEATHER ROUNDUP
NATIONAL WEATHER SERVICE MIDLAND TX
200 AM CDT MON MAY 25 2015

...IN SOUTHWEST TEXAS AND SOUTHEAST NEW MEXICO...

CITY           SKY/WX    TMP DP  RH WIND       PRES   REMARKS
ALPINE         PTCLDY    66  47  49 N6        29.92F
ANDREWS        FAIR      60  51  70 S6        29.85F
ARTESIA        MOCLDY    64  28  25 SW7       29.86R
BIG SPRING     CLEAR     72  56  58 SE16      29.85F
CARLSBAD       PTCLDY    61  35  37 SW7       29.82S
DRYDEN           N/A     72  61  68 VRB3      29.81F
FORT STOCKTON  PTCLDY    69  54  58 SE21G28   29.83S
GUAD PASS      MOCLDY    65  18  16 SW12      29.96F
HOBBS          PTCLDY    57  36  44 CALM      29.88S
MARFA          MOCLDY    57  37  47 N7        29.92F
MIDLAND AIRPK  CLEAR     68  54  61 S10       29.85S
MIDLAND INTL   CLEAR     63  55  75 S6        29.84S
ODESSA           N/A    N/A N/A N/A MISG      29.85S
PECOS          MOCLDY    65  50  59 CALM      29.81S
PRESIDIO       FAIR      72  32  22 W6        29.77R
SEMINOLE       CLEAR     57  44  61 CALM      29.86F
SNYDER         CLEAR     65  58  79 SE10      29.84F
WINK           CLEAR     64  47  53 SE8       29.81R
$$
...OTHER STATIONS IN TEXAS...

CITY           SKY/WX    TMP DP  RH WIND       PRES   REMARKS
ABILENE        CLEAR     69  65  86 S13       29.84F
AMARILLO       PTCLDY    59  44  57 S12       29.82S
AUSTIN         CLOUDY    71  71 100 S9        29.90F
BROWNSVILLE    CLEAR     77  74  90 SE7       29.88F
CORPUS CHRISTI PTCLDY    76  73  91 SE10      29.88F
DALLAS FTW     CLEAR     70  69  97 S8        29.87S
DEL RIO        MOCLDY    74  68  81 SE10      29.80F
EL PASO        CLOUDY    70  28  21 W18G24    29.92R
HOUSTON INT    MOCLDY    72  70  93 S7        29.94S
LUBBOCK        FAIR      64  42  44 S14       29.84S
SAN ANGELO     PTCLDY    70  64  81 S13       29.83F
SAN ANTONIO    MOCLDY    72  69  90 SE8       29.90S
WACO           LGT RAIN  71  68  90 S12       29.89F
WICHITA FALLS  NOT AVBL
$$
...OTHER LOCATIONS IN NEW MEXICO...

CITY           SKY/WX    TMP DP  RH WIND       PRES   REMARKS
ALAMAGORDO     MOCLDY    63  30  29 NW7       29.92S
ALBUQUERQUE    CLOUDY    53  46  77 E5        30.00F
CANNON AFB     PTCLDY    59  44  57 N12       29.85S
CLOVIS         PTCLDY    52  43  71 W12       29.86R
HOLLOMAN AFB   MOCLDY    62  34  35 NW3       29.91R
ROSWELL        CLOUDY    65  33  30 W12       29.84S
RUIDOSO        PTCLDY    50  32  50 NW10      30.04S
SANTA FE       MOCLDY    48  39  71 W8        30.01S
TRUTH OR CONSE PTCLDY    58  36  43 W16       29.97S
TUCUMCARI      PTCLDY    58  44  60 W12       29.84S
$$

USA.gov is the U.S. government's official web portal to all federal, state and local government web resources and services.